Location: Apperson Ridge
(37.5355°N, 121.7908°W)
Time: 11:42:34
(UTC+00:00)

Daily predictions for brighter satellites

Satellite Brightness Start Highest point End
(mag) Time Altitude Azimuth Time Altitude Azimuth Time Altitude Azimuth
PSLV R/B 3.6 12:01:31 10° NNE 12:05:54 85° E 12:10:15 10° SSW
Cosmos 2285 Rocket 4.5 12:03:36 20° SW 12:07:37 43° WNW 12:13:35 10° N
Cosmos 468 4.5 12:04:41 10° NNW 12:09:54 65° WSW 12:15:08 10° S
OAO 3 Rocket 3.3 12:07:27 18° W 12:11:01 66° S 12:15:55 10° E
ARIANE 5 R/B 4.0 12:07:57 10° NNW 12:11:48 21° WNW 12:14:18 15° W
Hubble Space Telescope 2.9 12:09:58 12° SSW 12:11:48 15° SSE 12:14:08 10° SE
H-2A R/B (2) 2.7 12:12:20 16° SSW 12:13:02 17° S 12:15:28 10° SE
Cosmos 1844 Rocket 2.7 12:07:40 11° SSW 12:13:03 87° ESE 12:18:39 10° NNE
Cosmos 2228 3.5 12:12:57 17° SW 12:15:59 41° W 12:20:10 10° N
deb Chang Zheng 4 3.9 12:11:40 10° NNE 12:16:01 67° ESE 12:20:19 10° S
Atlas Centaur 2 3.5 12:11:47 17° SW 12:17:09 44° SSE 12:24:56 10° E
Cosmos 1386 Rocket 4.4 12:16:02 10° N 12:22:01 71° W 12:27:59 10° S
SAR-Lupe-4 4.1 12:22:53 10° SSE 12:26:25 62° ENE 12:29:57 10° N
NOSS 2-2 (D) 3.1 12:24:01 11° SSW 12:27:27 77° ESE 12:31:08 10° NE
NOSS 2-2 (E) 3.0 12:24:39 13° SW 12:27:42 77° WNW 12:31:28 10° NNE
Cosmos 2058 Rocket 3.1 12:25:15 10° SSW 12:29:42 65° W 12:34:08 10° N
Meteor 2-15 Rocket 4.4 12:25:50 10° SSW 12:31:54 74° W 12:37:59 10° N
CZ-2C R/B 4.4 12:30:17 10° NNW 12:32:54 18° WNW 12:35:08 12° WSW
USA 267 3.3 12:26:34 10° SE 12:33:06 88° SW 12:39:41 10° NW
Cosmos 883 Rocket 4.5 12:28:42 10° SSW 12:34:52 72° W 12:41:09 10° N
Lacrosse 5 rocket 4.4 12:33:21 10° SE 12:34:56 12° ESE 12:36:30 10° E
IDEFIX/ARIANE 42P 4.1 12:33:55 10° NNW 12:37:28 19° WNW 12:41:00 10° WSW
Cosmos 1689 Rocket 4.3 12:36:13 10° SE 12:38:48 29° ENE 12:41:23 10° N
ADEOS 3.6 12:35:07 10° NNE 12:40:22 83° WNW 12:45:35 10° SSW
Cosmos 1745 Rocket 4.3 12:34:28 10° NNW 12:40:25 46° W 12:46:16 10° SSW
SAR-Lupe-1 4.0 12:38:02 10° SSE 12:41:37 86° W 12:45:12 10° NNW
H-2A R/B 3.2 12:38:50 10° SSW 12:42:02 22° W 12:45:13 10° NW
Cosmos 1943 4.3 12:39:18 10° NW 12:43:23 21° W 12:47:28 10° SSW
CZ-4B R/B 1.2 12:42:36 10° S 12:45:51 65° WSW 12:49:03 10° NNW
OAO 2 Rocket 3.8 12:41:41 10° WSW 12:46:49 54° SSE 12:51:53 10° E
Cosmos 494 Rocket 4.2 12:42:58 10° NNW 12:47:56 49° WSW 12:52:54 10° S
SeaSat 1 3.4 12:47:23 10° N 12:51:44 32° WNW 12:56:04 10° WSW
ASTRO F (AKARI) 4.1 12:49:07 10° N 12:52:13 83° W 12:55:18 10° SSW
